RYR2MK LIEE-LOWW

Flight info

Callsign RYR2MK
Flight time 1h 45m
Altitude 18000
Route KOVAS Q125 LABOM/N0450F360 DCT TAQ DCT TIMOV DCT BAXON/N0446F370 DCT LAPNA LAPNA2W
Aircraft B738/M-SDE2E3FGHIRWXY/LB1

Departure

Time 2026-05-04 11:31
Airport Cagliari Elmas Airport (LIEE)

Arrival

Time 2026-05-04 13:17
Airport Vienna International Airport (LOWW)
Time Latitude Longitude Altitude Speed Heading
2026-05-04 10:57 39.25250 9.05869 16 ft 0 kts 52°
2026-05-04 11:23 39.25248 9.05866 14 ft 3 kts 52°
2026-05-04 11:23 39.25232 9.05841 14 ft 2 kts 51°
2026-05-04 11:24 39.25196 9.05831 14 ft 0 kts 318°
2026-05-04 11:26 39.25204 9.05821 14 ft 5 kts 318°
2026-05-04 11:27 39.25789 9.04959 14 ft 24 kts 317°
2026-05-04 11:28 39.25912 9.04817 14 ft 24 kts 318°
2026-05-04 11:28 39.26040 9.04668 14 ft 26 kts 318°
2026-05-04 11:28 39.26119 9.04528 14 ft 19 kts 278°
2026-05-04 11:28 39.26106 9.04410 15 ft 13 kts 226°
2026-05-04 11:29 39.26044 9.04388 13 ft 10 kts 134°
2026-05-04 11:29 39.25974 9.04472 13 ft 30 kts 138°
2026-05-04 11:29 39.25655 9.04843 16 ft 92 kts 138°
2026-05-04 11:29 39.25039 9.05555 16 ft 143 kts 138°
2026-05-04 11:31 39.17564 9.11725 3264 ft 221 kts 186°
2026-05-04 11:33 39.17083 9.01498 7367 ft 285 kts 349°
2026-05-04 11:33 39.19088 9.01491 8072 ft 290 kts
2026-05-04 11:33 39.21113 9.01724 8720 ft 294 kts
2026-05-04 11:34 39.23164 9.02002 9372 ft 298 kts
2026-05-04 11:34 39.25238 9.02285 10043 ft 301 kts
2026-05-04 11:34 39.27352 9.02565 10462 ft 314 kts
2026-05-04 11:34 39.29600 9.02849 10608 ft 335 kts
2026-05-04 11:35 39.31987 9.03145 10790 ft 352 kts
2026-05-04 11:35 39.34452 9.03448 11295 ft 359 kts
2026-05-04 11:35 39.36919 9.03752 11930 ft 362 kts
2026-05-04 11:35 39.39438 9.04059 12596 ft 365 kts
2026-05-04 11:36 39.41976 9.04367 13248 ft 368 kts
2026-05-04 11:36 39.44535 9.04676 13909 ft 371 kts
2026-05-04 11:36 39.47120 9.04988 14532 ft 374 kts
2026-05-04 11:36 39.49716 9.05301 15192 ft 376 kts
2026-05-04 11:37 39.52326 9.05616 15851 ft 378 kts
2026-05-04 11:37 39.54951 9.05933 16505 ft 380 kts
2026-05-04 11:37 39.57596 9.06252 17128 ft 383 kts
2026-05-04 11:37 39.60259 9.06574 17760 ft 386 kts
2026-05-04 11:38 39.62939 9.06898 18399 ft 387 kts
2026-05-04 11:38 39.65628 9.07334 18927 ft 392 kts
2026-05-04 11:38 39.68303 9.08164 19436 ft 397 kts 12°
2026-05-04 11:38 39.70954 9.09097 19898 ft 402 kts 12°
2026-05-04 11:39 39.73662 9.10059 20439 ft 404 kts 11°
2026-05-04 11:39 39.76378 9.11005 20990 ft 405 kts 11°
2026-05-04 11:40 39.92984 9.17563 23762 ft 428 kts 17°
2026-05-04 11:41 39.95762 9.19004 24167 ft 430 kts 16°
2026-05-04 11:41 39.98557 9.20446 24580 ft 433 kts 16°
2026-05-04 11:41 40.01369 9.21880 24946 ft 435 kts 15°
2026-05-04 11:41 40.04207 9.23313 25296 ft 439 kts 15°
2026-05-04 11:42 40.07067 9.24748 25631 ft 442 kts 15°
2026-05-04 11:42 40.09940 9.26185 26042 ft 443 kts 15°
2026-05-04 11:42 40.12836 9.27635 26394 ft 447 kts 15°
2026-05-04 11:42 40.15748 9.29093 26689 ft 451 kts 15°
2026-05-04 11:43 40.18684 9.30565 27028 ft 453 kts 15°
2026-05-04 11:43 40.21637 9.32048 27381 ft 455 kts 15°
2026-05-04 11:43 40.24604 9.33541 27684 ft 457 kts 15°
2026-05-04 11:43 40.27583 9.35042 27982 ft 460 kts 14°
2026-05-04 11:44 40.30540 9.36531 28281 ft 463 kts 14°
2026-05-04 11:44 40.33590 9.38068 28599 ft 465 kts 14°
2026-05-04 11:44 40.36556 9.39692 28907 ft 472 kts 20°
2026-05-04 11:44 40.39413 9.41916 29200 ft 483 kts 29°
2026-05-04 11:45 40.42029 9.44749 29447 ft 492 kts 37°
2026-05-04 11:45 40.44541 9.47821 29752 ft 495 kts 38°
2026-05-04 11:45 40.47027 9.50946 30107 ft 495 kts 38°
2026-05-04 11:45 40.49516 9.54090 30338 ft 498 kts 38°
2026-05-04 11:46 40.51179 9.56183 30480 ft 500 kts 38°
2026-05-04 11:46 40.53710 9.59345 30667 ft 503 kts 37°
2026-05-04 11:46 40.56261 9.62509 30878 ft 505 kts 37°
2026-05-04 11:46 40.58816 9.65667 31241 ft 503 kts 37°
2026-05-04 11:47 40.61359 9.68806 31648 ft 500 kts 37°
2026-05-04 11:47 40.63894 9.71932 31967 ft 499 kts 37°
2026-05-04 11:47 40.66432 9.75060 32191 ft 501 kts 37°
2026-05-04 11:47 40.68977 9.78199 32424 ft 502 kts 37°
2026-05-04 11:48 40.71524 9.81345 32735 ft 501 kts 37°
2026-05-04 11:48 40.74059 9.84484 33100 ft 498 kts 37°
2026-05-04 11:48 40.76566 9.87596 33639 ft 492 kts 36°
2026-05-04 11:48 40.79048 9.90681 33996 ft 490 kts 36°
2026-05-04 11:49 40.81532 9.93766 34169 ft 491 kts 36°
2026-05-04 11:49 40.84026 9.96864 34310 ft 493 kts 36°
2026-05-04 11:49 40.86524 9.99970 34552 ft 492 kts 36°
2026-05-04 11:49 40.89006 10.03065 34851 ft 490 kts 36°
2026-05-04 11:50 40.91479 10.06153 35160 ft 488 kts 37°
2026-05-04 11:50 40.93941 10.09230 35425 ft 486 kts 37°
2026-05-04 11:50 40.96398 10.12303 35658 ft 485 kts 37°
2026-05-04 11:50 40.98847 10.15369 35861 ft 485 kts 37°
2026-05-04 11:51 41.01260 10.18391 36062 ft 484 kts 37°
2026-05-04 11:51 41.03705 10.21458 36281 ft 483 kts 37°
2026-05-04 11:51 41.06131 10.24506 36618 ft 479 kts 37°
2026-05-04 11:51 41.08540 10.27537 36931 ft 476 kts 37°
2026-05-04 11:52 41.10939 10.30556 37118 ft 476 kts 37°
2026-05-04 11:52 41.15768 10.36636 37123 ft 480 kts 37°
2026-05-04 11:53 41.20591 10.42728 37113 ft 477 kts 37°
2026-05-04 11:53 41.25379 10.48793 37117 ft 474 kts 37°
2026-05-04 11:55 41.44326 10.72904 37129 ft 470 kts 37°
2026-05-04 11:56 41.49049 10.78946 37144 ft 471 kts 37°
2026-05-04 11:56 41.53777 10.85006 37136 ft 472 kts 37°
2026-05-04 11:57 41.58509 10.91086 37137 ft 473 kts 37°
2026-05-04 11:57 41.63257 10.97199 37141 ft 474 kts 37°
2026-05-04 11:58 41.68007 11.03329 37157 ft 475 kts 38°
2026-05-04 11:58 41.72768 11.09486 37143 ft 476 kts 38°
2026-05-04 11:59 41.77536 11.15666 37144 ft 477 kts 38°
2026-05-04 11:59 41.82312 11.21870 37144 ft 478 kts 38°
2026-05-04 12:00 41.87079 11.28077 37153 ft 478 kts 38°
2026-05-04 12:00 41.91850 11.34301 37159 ft 478 kts 38°
2026-05-04 12:01 41.96579 11.40485 37139 ft 477 kts 38°
2026-05-04 12:02 42.13101 11.62197 37144 ft 472 kts 38°
2026-05-04 12:03 42.17792 11.68390 37150 ft 471 kts 38°
2026-05-04 12:03 42.22775 11.73966 37158 ft 459 kts 25°
2026-05-04 12:04 42.28466 11.77579 37176 ft 450 kts 16°
2026-05-04 12:04 42.34227 11.80879 37179 ft 450 kts 17°
2026-05-04 12:05 42.39974 11.84266 37181 ft 451 kts 17°
2026-05-04 12:05 42.45673 11.87670 37181 ft 451 kts 17°
2026-05-04 12:06 42.51376 11.91264 37173 ft 455 kts 22°
2026-05-04 12:06 42.56887 11.95562 37184 ft 458 kts 25°
2026-05-04 12:07 42.62367 12.00004 37189 ft 459 kts 25°
2026-05-04 12:07 42.67874 12.04418 37170 ft 460 kts 25°
2026-05-04 12:08 42.73407 12.08809 37165 ft 460 kts 25°
2026-05-04 12:08 42.78942 12.13191 37162 ft 460 kts 25°
2026-05-04 12:09 42.84476 12.17580 37147 ft 460 kts 25°
2026-05-04 12:09 42.89998 12.21971 37150 ft 459 kts 25°
2026-05-04 12:10 42.95505 12.26361 37144 ft 458 kts 25°
2026-05-04 12:10 43.00963 12.30720 37156 ft 456 kts 26°
2026-05-04 12:11 43.06442 12.35106 37151 ft 456 kts 26°
2026-05-04 12:11 43.11902 12.39485 37164 ft 455 kts 26°
2026-05-04 12:12 43.17359 12.43870 37171 ft 454 kts 26°
2026-05-04 12:12 43.22806 12.48257 37155 ft 454 kts 26°
2026-05-04 12:14 43.44549 12.65859 37127 ft 455 kts 27°
2026-05-04 12:15 43.50012 12.70306 37128 ft 456 kts 27°
2026-05-04 12:15 43.55479 12.74764 37104 ft 458 kts 27°
2026-05-04 12:16 43.60965 12.79249 37099 ft 459 kts 27°
2026-05-04 12:16 43.66450 12.83742 37115 ft 459 kts 27°
2026-05-04 12:17 43.71945 12.88253 37110 ft 459 kts 28°
2026-05-04 12:17 43.77450 12.92782 37093 ft 460 kts 28°
2026-05-04 12:18 43.82951 12.97318 37105 ft 460 kts 28°
2026-05-04 12:18 43.88455 13.01866 37106 ft 460 kts 28°
2026-05-04 12:19 43.93960 13.06424 37100 ft 461 kts 28°
2026-05-04 12:19 43.99460 13.10989 37098 ft 460 kts 28°
2026-05-04 12:20 44.04918 13.15529 37100 ft 460 kts 28°
2026-05-04 12:20 44.10400 13.20098 37095 ft 459 kts 28°
2026-05-04 12:21 44.15876 13.24673 37102 ft 458 kts 28°
2026-05-04 12:21 44.21338 13.29245 37099 ft 457 kts 28°
2026-05-04 12:22 44.26789 13.33818 37096 ft 457 kts 28°
2026-05-04 12:22 44.32231 13.38395 37100 ft 457 kts 28°
2026-05-04 12:23 44.37677 13.42990 37105 ft 457 kts 28°
2026-05-04 12:23 44.43078 13.47570 37113 ft 457 kts 30°
2026-05-04 12:24 44.48399 13.52465 37106 ft 458 kts 32°
2026-05-04 12:24 44.53684 13.57466 37103 ft 458 kts 32°
2026-05-04 12:25 44.58978 13.62453 37115 ft 458 kts 32°
2026-05-04 12:25 44.64281 13.67425 37112 ft 459 kts 31°
2026-05-04 12:26 44.69592 13.72400 37117 ft 459 kts 31°
2026-05-04 12:26 44.74898 13.77381 37135 ft 458 kts 31°
2026-05-04 12:27 44.80195 13.82367 37128 ft 458 kts 31°
2026-05-04 12:27 44.85485 13.87357 37127 ft 457 kts 31°
2026-05-04 12:28 44.90757 13.92342 37129 ft 455 kts 31°
2026-05-04 12:28 44.96015 13.97325 37131 ft 454 kts 32°
2026-05-04 12:29 45.01259 14.02305 37104 ft 453 kts 32°
2026-05-04 12:29 45.06486 14.07282 37114 ft 453 kts 32°
2026-05-04 12:30 45.11707 14.12268 37117 ft 452 kts 32°
2026-05-04 12:30 45.16892 14.17221 37114 ft 452 kts 32°
2026-05-04 12:31 45.22101 14.22211 37119 ft 452 kts 32°
2026-05-04 12:31 45.27298 14.27203 37121 ft 450 kts 32°
2026-05-04 12:32 45.35076 14.34694 37121 ft 451 kts 32°
2026-05-04 12:33 45.40272 14.39712 37123 ft 452 kts 32°
2026-05-04 12:33 45.45441 14.44716 37126 ft 452 kts 32°
2026-05-04 12:34 45.50652 14.49772 37108 ft 454 kts 32°
2026-05-04 12:34 45.55877 14.54852 37091 ft 455 kts 32°
2026-05-04 12:35 45.61102 14.59946 37090 ft 454 kts 32°
2026-05-04 12:35 45.65446 14.64189 37088 ft 454 kts 32°
2026-05-04 12:36 45.70664 14.69297 37069 ft 454 kts 32°
2026-05-04 12:36 45.75871 14.74406 37073 ft 453 kts 32°
2026-05-04 12:37 45.81066 14.79514 37061 ft 452 kts 32°
2026-05-04 12:37 45.86247 14.84620 37058 ft 451 kts 32°
2026-05-04 12:38 45.91414 14.89725 37051 ft 450 kts 32°
2026-05-04 12:38 45.96567 14.94827 37055 ft 450 kts 32°
2026-05-04 12:39 46.01677 14.99898 37060 ft 449 kts 32°
2026-05-04 12:39 46.06816 15.05010 37050 ft 449 kts 32°
2026-05-04 12:40 46.11958 15.10137 37057 ft 449 kts 32°
2026-05-04 12:40 46.17091 15.15266 37050 ft 449 kts 32°
2026-05-04 12:41 46.22230 15.20413 36841 ft 453 kts 32°
2026-05-04 12:41 46.24830 15.23021 36352 ft 455 kts 32°
2026-05-04 12:41 46.27421 15.25624 35783 ft 453 kts 32°
2026-05-04 12:41 46.30009 15.28228 35257 ft 452 kts 32°
2026-05-04 12:42 46.32570 15.30808 34866 ft 447 kts 32°
2026-05-04 12:42 46.35112 15.33372 34446 ft 443 kts 32°
2026-05-04 12:42 46.37627 15.35912 34023 ft 439 kts 32°
2026-05-04 12:42 46.40129 15.38440 33570 ft 436 kts 32°
2026-05-04 12:43 46.42603 15.40942 33117 ft 432 kts 32°
2026-05-04 12:43 46.45019 15.43390 32733 ft 427 kts 32°
2026-05-04 12:43 46.47447 15.45851 32312 ft 424 kts 32°
2026-05-04 12:43 46.49850 15.48289 31931 ft 420 kts 32°
2026-05-04 12:44 46.52235 15.50711 31536 ft 416 kts 32°
2026-05-04 12:44 46.54670 15.52933 31194 ft 409 kts 23°
2026-05-04 12:44 46.57238 15.54601 30907 ft 402 kts 20°
2026-05-04 12:44 46.59822 15.56123 30530 ft 399 kts 19°
2026-05-04 12:45 46.62397 15.57606 30150 ft 396 kts 19°
2026-05-04 12:45 46.64944 15.59085 29725 ft 393 kts 20°
2026-05-04 12:45 46.67466 15.60575 29315 ft 389 kts 20°
2026-05-04 12:45 46.69963 15.62072 28916 ft 386 kts 20°
2026-05-04 12:46 46.72431 15.63568 28525 ft 382 kts 20°
2026-05-04 12:46 46.74877 15.65061 28118 ft 380 kts 20°
2026-05-04 12:46 46.77302 15.66547 27725 ft 377 kts 21°
2026-05-04 12:46 46.79708 15.68025 27343 ft 374 kts 20°
2026-05-04 12:47 46.82102 15.69497 26956 ft 372 kts 20°
2026-05-04 12:47 46.84477 15.70960 26578 ft 369 kts 20°
2026-05-04 12:47 46.86837 15.72415 26204 ft 367 kts 20°
2026-05-04 12:47 46.89186 15.73864 25836 ft 365 kts 20°
2026-05-04 12:48 46.91522 15.75306 25470 ft 364 kts 20°
2026-05-04 12:48 46.93851 15.76745 25092 ft 363 kts 20°
2026-05-04 12:48 46.96172 15.78180 24722 ft 362 kts 21°
2026-05-04 12:48 46.98488 15.79614 24343 ft 361 kts 20°
2026-05-04 12:49 47.00797 15.81045 23964 ft 361 kts 21°
2026-05-04 12:49 47.03112 15.82481 23582 ft 360 kts 21°
2026-05-04 12:49 47.05390 15.83895 23158 ft 359 kts 20°
2026-05-04 12:49 47.07687 15.85323 22759 ft 358 kts 21°
2026-05-04 12:50 47.09973 15.86746 22369 ft 356 kts 21°
2026-05-04 12:50 47.12251 15.88165 21997 ft 355 kts 21°
2026-05-04 12:50 47.14518 15.89578 21633 ft 353 kts 21°
2026-05-04 12:50 47.16773 15.90984 21266 ft 352 kts 21°
2026-05-04 12:51 47.19022 15.92389 20902 ft 350 kts 21°
2026-05-04 12:51 47.21263 15.93789 20533 ft 349 kts 21°
2026-05-04 12:51 47.23497 15.95187 20185 ft 349 kts 21°
2026-05-04 12:51 47.25728 15.96584 19816 ft 348 kts 22°
2026-05-04 12:52 47.27955 15.97980 19464 ft 347 kts 22°
2026-05-04 12:52 47.30181 15.99376 19104 ft 347 kts 22°
2026-05-04 12:52 47.32395 16.00766 18757 ft 346 kts 22°
2026-05-04 12:52 47.34608 16.02157 18412 ft 346 kts 22°
2026-05-04 12:53 47.36822 16.03429 18017 ft 345 kts 15°
2026-05-04 12:53 47.39166 16.04110 17656 ft 345 kts
2026-05-04 12:53 47.41559 16.04525 17300 ft 346 kts
2026-05-04 12:53 47.43968 16.04923 16940 ft 350 kts
2026-05-04 12:54 47.46399 16.05326 16582 ft 352 kts
2026-05-04 12:54 47.48837 16.05737 16231 ft 353 kts
2026-05-04 12:54 47.51279 16.06156 15875 ft 354 kts
2026-05-04 12:54 47.53731 16.06582 15528 ft 354 kts
2026-05-04 12:55 47.56176 16.07011 15176 ft 352 kts
2026-05-04 12:55 47.58605 16.07439 14815 ft 351 kts
2026-05-04 12:55 47.61018 16.07866 14473 ft 349 kts
2026-05-04 12:55 47.63430 16.08293 14109 ft 348 kts
2026-05-04 12:56 47.65826 16.08720 13744 ft 346 kts
2026-05-04 12:56 47.68214 16.09144 13376 ft 345 kts
2026-05-04 12:56 47.70586 16.09566 13010 ft 342 kts
2026-05-04 12:56 47.72915 16.09980 12666 ft 340 kts
2026-05-04 12:57 47.75258 16.10397 12322 ft 338 kts
2026-05-04 12:57 47.77587 16.10813 11986 ft 335 kts
2026-05-04 12:57 47.79893 16.11224 11655 ft 333 kts
2026-05-04 12:57 47.82192 16.11636 11325 ft 331 kts
2026-05-04 12:58 47.84479 16.12045 10998 ft 329 kts
2026-05-04 12:58 47.86746 16.12450 10673 ft 327 kts
2026-05-04 12:58 47.89003 16.12854 10345 ft 326 kts
2026-05-04 12:58 47.91242 16.13257 10160 ft 320 kts
2026-05-04 12:59 47.93420 16.13649 10050 ft 311 kts
2026-05-04 12:59 47.95515 16.14325 9828 ft 308 kts 20°
2026-05-04 12:59 47.97479 16.15600 9497 ft 307 kts 24°
2026-05-04 12:59 47.99382 16.16939 9102 ft 303 kts 25°
2026-05-04 13:00 48.01280 16.18284 8610 ft 302 kts 25°
2026-05-04 13:00 48.03177 16.19637 8107 ft 301 kts 25°
2026-05-04 13:00 48.05133 16.20681 7608 ft 298 kts
2026-05-04 13:00 48.07173 16.20959 7261 ft 291 kts
2026-05-04 13:01 48.09196 16.21271 6683 ft 295 kts
2026-05-04 13:01 48.11250 16.21596 6084 ft 298 kts
2026-05-04 13:01 48.13311 16.21914 5572 ft 297 kts
2026-05-04 13:01 48.15322 16.22467 5175 ft 292 kts 20°
2026-05-04 13:02 48.17054 16.23936 4810 ft 284 kts 47°
2026-05-04 13:02 48.18103 16.26309 4554 ft 268 kts 75°
2026-05-04 13:02 48.18491 16.28967 4316 ft 257 kts 83°
2026-05-04 13:02 48.18753 16.31605 3964 ft 253 kts 88°
2026-05-04 13:03 48.18539 16.34107 3594 ft 236 kts 116°
2026-05-04 13:03 48.17820 16.36282 3128 ft 231 kts 118°
2026-05-04 13:03 48.17144 16.38398 2811 ft 222 kts 118°
2026-05-04 13:03 48.16486 16.40432 2505 ft 209 kts 119°
2026-05-04 13:04 48.15885 16.42274 2249 ft 190 kts 118°
2026-05-04 13:04 48.15330 16.43980 1985 ft 174 kts 121°
2026-05-04 13:04 48.14829 16.45518 1788 ft 155 kts 122°
2026-05-04 13:04 48.14364 16.46941 1570 ft 152 kts 121°
2026-05-04 13:05 48.13902 16.48360 1346 ft 151 kts 122°
2026-05-04 13:05 48.13443 16.49765 1157 ft 150 kts 120°
2026-05-04 13:05 48.12990 16.51163 934 ft 145 kts 119°
2026-05-04 13:05 48.12558 16.52497 737 ft 143 kts 120°
2026-05-04 13:06 48.12123 16.53829 615 ft 137 kts 118°
2026-05-04 13:06 48.11736 16.54992 660 ft 124 kts 127°
2026-05-04 13:06 48.11247 16.56260 1081 ft 155 kts 121°
2026-05-04 13:06 48.10801 16.57779 1931 ft 165 kts 120°
2026-05-04 13:07 48.10380 16.59325 3077 ft 152 kts 117°
2026-05-04 13:07 48.09991 16.60742 3949 ft 149 kts 125°
2026-05-04 13:07 48.09185 16.61841 4189 ft 172 kts 165°
2026-05-04 13:07 48.07922 16.61809 4459 ft 198 kts 199°
2026-05-04 13:08 48.06600 16.60977 4911 ft 206 kts 205°
2026-05-04 13:08 48.05260 16.60082 4951 ft 215 kts 205°
2026-05-04 13:08 48.03999 16.58880 4975 ft 218 kts 228°
2026-05-04 13:08 48.03358 16.56849 4976 ft 222 kts 261°
2026-05-04 13:09 48.03593 16.54558 5009 ft 231 kts 290°
2026-05-04 13:09 48.04305 16.52378 5001 ft 234 kts 290°
2026-05-04 13:09 48.05002 16.50188 5016 ft 233 kts 290°
2026-05-04 13:09 48.05700 16.48001 4966 ft 233 kts 290°
2026-05-04 13:10 48.06397 16.45831 4842 ft 228 kts 290°
2026-05-04 13:10 48.07083 16.43706 4634 ft 226 kts 290°
2026-05-04 13:10 48.07771 16.41567 4297 ft 231 kts 290°
2026-05-04 13:10 48.08456 16.39367 4042 ft 233 kts 289°
2026-05-04 13:11 48.09142 16.37157 3716 ft 238 kts 290°
2026-05-04 13:11 48.09810 16.34886 3602 ft 239 kts 290°
2026-05-04 13:11 48.10480 16.32598 3531 ft 240 kts 290°
2026-05-04 13:11 48.11126 16.30357 3518 ft 236 kts 290°
2026-05-04 13:12 48.12003 16.28251 3462 ft 245 kts 316°
2026-05-04 13:12 48.13498 16.27056 3482 ft 248 kts 349°
2026-05-04 13:12 48.15180 16.27151 3484 ft 239 kts 21°
2026-05-04 13:12 48.16511 16.28433 3483 ft 221 kts 54°
2026-05-04 13:13 48.17131 16.30397 3390 ft 201 kts 81°
2026-05-04 13:13 48.17475 16.32390 3238 ft 194 kts 80°
2026-05-04 13:13 48.17800 16.34305 3213 ft 186 kts 81°
2026-05-04 13:13 48.17801 16.36172 3082 ft 178 kts 115°
2026-05-04 13:14 48.17287 16.37865 2872 ft 180 kts 118°
2026-05-04 13:14 48.16771 16.39534 2636 ft 173 kts 120°
2026-05-04 13:14 48.16267 16.41099 2405 ft 160 kts 119°
2026-05-04 13:14 48.15790 16.42564 2213 ft 157 kts 119°
2026-05-04 13:15 48.15318 16.44011 1981 ft 154 kts 121°
2026-05-04 13:15 48.14855 16.45429 1783 ft 150 kts 122°
2026-05-04 13:15 48.14397 16.46835 1577 ft 151 kts 121°
2026-05-04 13:15 48.13940 16.48252 1385 ft 150 kts 123°
2026-05-04 13:16 48.13477 16.49654 1216 ft 150 kts 121°
2026-05-04 13:16 48.13031 16.51038 968 ft 145 kts 119°
2026-05-04 13:16 48.12601 16.52368 758 ft 141 kts 120°
2026-05-04 13:16 48.12166 16.53699 619 ft 139 kts 121°
2026-05-04 13:17 48.11799 16.54817 614 ft 98 kts 115°
2026-05-04 13:17 48.11606 16.55406 612 ft 47 kts 116°
2026-05-04 13:17 48.11515 16.55729 621 ft 28 kts 104°
2026-05-04 13:17 48.11501 16.55964 609 ft 18 kts 89°
2026-05-04 13:18 48.11526 16.56119 615 ft 13 kts 42°
2026-05-04 13:18 48.11596 16.56086 609 ft 13 kts 296°
2026-05-04 13:18 48.11634 16.55971 614 ft 12 kts 295°
2026-05-04 13:18 48.11670 16.55858 612 ft 12 kts 297°
2026-05-04 13:19 48.11711 16.55734 612 ft 15 kts 296°
2026-05-04 13:19 48.11744 16.55636 611 ft 16 kts 296°
2026-05-04 13:19 48.11807 16.55445 614 ft 12 kts 304°
2026-05-04 13:19 48.11886 16.55435 609 ft 12 kts
2026-05-04 13:20 48.11964 16.55472 618 ft 12 kts 25°
2026-05-04 13:20 48.12046 16.55531 609 ft 14 kts 26°
2026-05-04 13:20 48.12103 16.55587 617 ft 7 kts 72°
2026-05-04 13:20 48.12093 16.55644 609 ft 4 kts 117°
2026-05-04 13:21 48.12091 16.55650 614 ft 0 kts 116°
2026-05-04 13:21 48.12091 16.55651 614 ft 0 kts 116°